Weather History for Yakima, WA

Change the Weather History Date:

Tuesday, April 23, 2013

  Actual Average Record
Temperature  
Mean Temperature 47 °F 50 °F  
Max Temperature 68 °F 66 °F 90 °F (2012)
Min Temperature 26 °F 36 °F 25 °F (1992)
Degree Days  
Heating Degree Days 18 15  
Month to date heating degree days 336 383  
Since 1 July heating degree days 4894 5587  
Cooling Degree Days 0 0  
Month to date cooling degree days 0 0  
Year to date cooling degree days 0 0  
Moisture  
Dew Point 25 °F    
Average Humidity 48    
Maximum Humidity 78    
Minimum Humidity 18    
Precipitation  
Precipitation 0.00 in 0.02 in 0.45 in (2005)
Month to date precipitation 0.40 0.41  
Year to date precipitation 1.30 2.95  
Snow  
Snow 0.00 in 0.00 in 0.00 in (2002)
Month to date snowfall 0.0 0.0  
Year to date snowfall 1.1 8.6  
Since 1 July snowfall 15.3 21.6  
Snow Depth 0.00 in    
Sea Level Pressure  
Sea Level Pressure 30.29 in    
Wind  
Wind Speed 5 mph (NW)    
Max Wind Speed 16 mph    
Max Gust Speed 64 mph    
Visibility 10 miles    
Events      
T = Trace of Precipitation, MM = Missing Value Source: NWS Daily Summary

Daily Weather History Graph

Daily Weather History Graph

Search for Another Location

Airport:

Trip Planner

Search our weather history database for the weather conditions in past years. The results will help you decide how hot, cold, wet, or windy it might be!

Date:

Astronomy

Apr. 23, 2013 Rise Set
Actual Time 6:00 AM PDT 8:01 PM PDT
Civil Twilight 5:27 AM PDT 8:34 PM PDT
Nautical Twilight 4:47 AM PDT 9:14 PM PDT
Astronomical Twilight 4:03 AM PDT 9:59 PM PDT
Moon 5:56 PM PDT (4/23) 4:39 AM PDT (4/23)
Length of Visible Light 15h 06m
Length of Day
14h 01m
Waxing Gibbous, 94% of the Moon is Illuminated
Apr 23
Waxing Gibbous
Apr 25
Full
May 2
Last Quarter
May 9
New
May 17
First Quarter

Hourly Weather History & Observations

Time (PDT) Temp. Windchill Dew Point Humidity Pressure Visibility Wind Dir Wind Speed Gust Speed Precip Events Conditions
12:53 AM 33.1 °F 28.7 °F 23.0 °F 66% 30.42 in 10.0 mi WNW 4.6 mph - N/A   Clear
1:53 AM 32.0 °F 26.4 °F 24.1 °F 73% 30.40 in 10.0 mi West 5.8 mph - N/A   Clear
2:53 AM 30.0 °F 23.2 °F 23.0 °F 75% 30.39 in 10.0 mi West 6.9 mph - N/A   Clear
3:53 AM 30.0 °F 25.2 °F 23.0 °F 75% 30.38 in 10.0 mi West 4.6 mph - N/A   Clear
4:53 AM 30.0 °F 26.5 °F 23.0 °F 75% 30.37 in 10.0 mi WSW 3.5 mph - 0.00 in   Clear
5:53 AM 28.0 °F 22.8 °F 21.0 °F 75% 30.36 in 10.0 mi WNW 4.6 mph - 0.00 in   Clear
6:53 AM 30.9 °F 27.5 °F 24.1 °F 76% 30.35 in 9.0 mi WNW 3.5 mph - 0.00 in   Clear
7:53 AM 37.9 °F - 27.0 °F 65% 30.34 in 10.0 mi Calm Calm - N/A   Clear
8:53 AM 46.9 °F - 28.0 °F 48% 30.31 in 10.0 mi Calm Calm - N/A   Clear
9:53 AM 52.0 °F - 28.9 °F 41% 30.28 in 10.0 mi Calm Calm - N/A   Clear
10:53 AM 55.9 °F - 28.9 °F 36% 30.26 in 10.0 mi ENE 3.5 mph - N/A   Clear
11:53 AM 57.9 °F - 26.1 °F 30% 30.26 in 10.0 mi ENE 3.5 mph - N/A   Clear
12:53 PM 60.1 °F - 25.0 °F 26% 30.25 in 10.0 mi Calm Calm - N/A   Mostly Cloudy
1:53 PM 63.0 °F - 23.0 °F 22% 30.24 in 10.0 mi North 8.1 mph - N/A   Mostly Cloudy
2:53 PM 64.9 °F - 27.0 °F 24% 30.22 in 10.0 mi West 11.5 mph - N/A   Scattered Clouds
3:53 PM 66.0 °F - 25.0 °F 21% 30.22 in 10.0 mi North 6.9 mph - N/A   Mostly Cloudy
4:53 PM 66.0 °F - 23.0 °F 20% 30.21 in 10.0 mi NNE 6.9 mph 17.3 mph N/A   Mostly Cloudy
5:53 PM 66.0 °F - 21.0 °F 18% 30.21 in 10.0 mi Calm Calm - N/A   Scattered Clouds
6:53 PM 64.0 °F - 19.9 °F 18% 30.22 in 10.0 mi ENE 6.9 mph - N/A   Clear
7:53 PM 57.9 °F - 21.0 °F 24% 30.22 in 10.0 mi East 5.8 mph - N/A   Clear
8:53 PM 48.0 °F - 24.1 °F 39% 30.25 in 10.0 mi WNW 3.5 mph - N/A   Clear
9:53 PM 46.0 °F 44.8 °F 27.0 °F 47% 30.27 in 10.0 mi WSW 3.5 mph - N/A   Clear
10:53 PM 39.9 °F 36.7 °F 27.0 °F 60% 30.28 in 10.0 mi West 4.6 mph - N/A   Clear
11:53 PM 41.0 °F 37.1 °F 26.1 °F 55% 30.30 in 10.0 mi West 5.8 mph - N/A   Clear